Location: Brachstadt
(48.6975°N, 10.6755°E)
Time: 06:09:20
(UTC+00:00)

Abrixas rocket - Pass Details

Date: 18 September 2020
Orbit: 328 x 335 km, 48.4° (Epoch: 27 October)

Event Time Altitude Azimuth Distance (km) Brightness Sun altitude
Rises 17:52:25 0° 245° (WSW) 2,093 6.8 -5.7°
Reaches altitude 10° 17:54:26 10° 240° (WSW) 1,256 5.5 -6.0°
Maximum altitude 17:57:10 51° 162° (SSE) 424 2.1 -6.4°
Drops below altitude 10° 17:59:54 10° 85° (E) 1,254 4.0 -6.9°
Enters shadow 18:00:05 - 85° (E) 1,329 4.2 -6.9°
